Find OneWeb SL0207

NORAD ID: 48242 Int'l Des: 2021-031 Owner: ONEWEBN Country: UK Constellation: oneweb operational
LEOCIRCULARPOLARONEWEB_TYPE

現在のビュー

3D地球を読み込み中...

About OneWeb SL0207

OneWeb SL0207 (NORAD 48242) is a oneweb constellation satellite launched Apr 25, 2021 by ONEWEBN of UK. It operates in LEO, CIRCULAR, POLAR, ONEWEB_TYPE orbit with a mass of 148.00 kg.

OneWeb SL0207について

説明を読み込み中...

次回通過

Passes for default location (London). Set your location on the main map for personalized predictions.

高度履歴

Loading altitude history...

軌道要素

1 48242U 21031AJ 26195.50446490 -.00000159 00000-0 -46387-3 0 9990
2 48242 87.8974 284.2576 0002045 92.0538 268.0826 13.14501045251887
Epoch: Jul 14, 2026 • Age: 11 hours

現在のステータス

高度 1236.1 km
遠地点 / 近地点 N/A
速度 7.24 km/s
衛星直下点 -86.43°S, 23.82°W
打ち上げ日 Apr 25, 2021
運用期間 5.2 years
タイプ internet

技術仕様

分類 Payload
質量 148.00 kg
乾燥質量 140.00 kg
総質量 148.00 kg
長さ 1.30 m
直径 1.00 m
スパン 5.00 m
形状 Trapezoid+2 pan
製造者 ONEWUS
バスタイプ ARROW
フェーズステータス In Orbit
所有者/国 ONEWEBN/UK

Most Searched